STARLINK-3776, 52288

Orbit data source: Space-Track

STARLINK-3776, 52288 is a payload satellite owned by SpaceX/Seattle (US) in LEO that was launched on Thu, 21 Apr 2022 UTC via an FALCON 9 launch vehicle from the Air Force Eastern Test Range (AFETR). Payload-class satellites include a variety of spacecraft equipped with specific instruments for various scientific and technological missions. These include communications satellites like Starlink; space stations such as the ISS; scientific satellites like the Hubble; Earth observation satellites from companies like Planet Labs, Umbra, and HawkEye 360; GPS; miniature CubeSats for education and research; and military/defense satellites.

Loading next visibility...
Identifier
52288, 2022-041AD
Orbit
LEO
Country
Flag of USUS
Related business
Manufacturer
SpaceX/Seattle
Mission
Operational Commercial Communications
Bus & Motor
STARLINK, Unknown motor
Mass
297 kg wet, ~275 kg dry
Launch date (UTC)
2022-04-21 (4 years ago)
Launch vehicle
FALCON 9
Launch site
Air Force Eastern Test Range (AFETR)
Object type
Payload
Rocket body
Debris
Shape & HBR
Box + 1 Pan, 10.1 m
Radar Cross Section
11.087 m², Large (>1 m²)

Expand to show TLE details & history
Last TLE update: 2 days ago

TLE from 2 days ago
0 STARLINK-3776
1 52288U 22041AD  26173.75487863  .00000488  00000-0  48775-4 0  9996
2 52288  53.1603 347.3357 0001263  84.0200 276.0936 15.08833859230360
Epoch: 2026-06-22T18:07Z
TLE epoch observation values (Epoch: 2026-06-22T18:07:01.513Z)
Latitude
0.00002°
Longitude
164.64316°
Altitude
540.561 km
Speed
7.593 km/s
True Right ascension
23h 09m 20s
True Declination
0° 00' 00"
Sunlit
Object was in daylight at epoch
Visualization orbit readout
Latitude
Unknown
Longitude
Unknown
Altitude
Unknown
Speed
Unknown
Apparent Right ascension
Unknown
Apparent Declination
Unknown
Sunlit
N/A
Visualization observer readout
Local Sidereal Time
10:34:44
Azimuth
Unknown
Elevation
Unknown
Doppler factor
Unknown
Orbital elements
Apogee altitude
540.89 km
Perigee altitude
539.142 km
Semi-major axis
6,918.153 km
Eccentricity
0.00013
Inclination
53.1603°
RAAN
347.3357°
Arg. of periapsis
84.02°
True anomaly
276.07921°
Mean anomaly
276.0936°
Eccentric anomaly
276.0864°
Mean motion
3.77188 °/min
Orbital period
95.44 mins
BSTAR
0.000048775
Loading maneuver chart data...
Computing Atmospheric mass density...
Loading historical data...
Loading historical data...
Loading historical data...
Loading historical data...
Loading historical data...
Loading historical data...
Loading historical data...

Documentation

Showing up to 5 results
|